#datetime,building,power
2023-02-13T00:00:00,axn,25.06
2023-02-13T00:01:00,axn,25.12
2023-02-13T00:02:00,axn,25.32
2023-02-13T00:03:00,axn,25.49
2023-02-13T00:04:00,axn,25.14
2023-02-13T00:05:00,axn,24.91
2023-02-13T00:06:00,axn,24.72
2023-02-13T00:07:00,axn,24.69
2023-02-13T00:08:00,axn,24.68
2023-02-13T00:09:00,axn,24.76
2023-02-13T00:10:00,axn,24.69
2023-02-13T00:11:00,axn,24.57
2023-02-13T00:12:00,axn,24.76
2023-02-13T00:13:00,axn,24.11
2023-02-13T00:14:00,axn,24.58
2023-02-13T00:15:00,axn,24.29
2023-02-13T00:16:00,axn,24.14
2023-02-13T00:17:00,axn,23.94
2023-02-13T00:18:00,axn,24.16
2023-02-13T00:19:00,axn,23.85
2023-02-13T00:20:00,axn,24.02
2023-02-13T00:21:00,axn,23.73
2023-02-13T00:22:00,axn,23.92
2023-02-13T00:23:00,axn,24.17
2023-02-13T00:24:00,axn,23.99
2023-02-13T00:25:00,axn,23.84
2023-02-13T00:26:00,axn,24.21
2023-02-13T00:27:00,axn,23.81
2023-02-13T00:28:00,axn,23.80
2023-02-13T00:29:00,axn,23.85
2023-02-13T00:30:00,axn,23.83
2023-02-13T00:31:00,axn,23.88
2023-02-13T00:32:00,axn,23.86
2023-02-13T00:33:00,axn,24.05
2023-02-13T00:34:00,axn,24.07
2023-02-13T00:35:00,axn,24.50
2023-02-13T00:36:00,axn,24.16
2023-02-13T00:37:00,axn,24.02
2023-02-13T00:38:00,axn,23.95
2023-02-13T00:39:00,axn,24.26
2023-02-13T00:40:00,axn,23.92
2023-02-13T00:41:00,axn,23.74
2023-02-13T00:42:00,axn,24.03
2023-02-13T00:43:00,axn,24.18
2023-02-13T00:44:00,axn,24.14
2023-02-13T00:45:00,axn,24.21
2023-02-13T00:46:00,axn,23.91
2023-02-13T00:47:00,axn,24.10
2023-02-13T00:48:00,axn,26.96
2023-02-13T00:49:00,axn,26.76
2023-02-13T00:50:00,axn,23.80
2023-02-13T00:51:00,axn,24.02
2023-02-13T00:52:00,axn,23.96
2023-02-13T00:53:00,axn,23.95
2023-02-13T00:54:00,axn,24.06
2023-02-13T00:55:00,axn,24.16
2023-02-13T00:56:00,axn,24.29
2023-02-13T00:57:00,axn,24.20
2023-02-13T00:58:00,axn,24.34
2023-02-13T00:59:00,axn,24.05
2023-02-13T01:00:00,axn,24.04
2023-02-13T01:01:00,axn,24.16
2023-02-13T01:02:00,axn,24.27
2023-02-13T01:03:00,axn,24.53
2023-02-13T01:04:00,axn,24.27
2023-02-13T01:05:00,axn,24.53
2023-02-13T01:06:00,axn,24.05
2023-02-13T01:07:00,axn,24.18
2023-02-13T01:08:00,axn,23.98
2023-02-13T01:09:00,axn,23.83
2023-02-13T01:10:00,axn,23.54
2023-02-13T01:11:00,axn,23.70
2023-02-13T01:12:00,axn,23.72
2023-02-13T01:13:00,axn,23.98
2023-02-13T01:14:00,axn,23.98
2023-02-13T01:15:00,axn,24.51
2023-02-13T01:16:00,axn,24.25
2023-02-13T01:17:00,axn,24.21
2023-02-13T01:18:00,axn,23.83
2023-02-13T01:19:00,axn,24.05
2023-02-13T01:20:00,axn,23.78
2023-02-13T01:21:00,axn,23.70
2023-02-13T01:22:00,axn,23.76
2023-02-13T01:23:00,axn,23.93
2023-02-13T01:24:00,axn,24.06
2023-02-13T01:25:00,axn,23.95
2023-02-13T01:26:00,axn,23.87
2023-02-13T01:27:00,axn,23.93
2023-02-13T01:28:00,axn,24.49
2023-02-13T01:29:00,axn,24.23
2023-02-13T01:30:00,axn,24.17
2023-02-13T01:31:00,axn,23.84
2023-02-13T01:32:00,axn,23.92
2023-02-13T01:33:00,axn,34.50
2023-02-13T01:34:00,axn,34.37
2023-02-13T01:35:00,axn,34.28
2023-02-13T01:36:00,axn,34.60
2023-02-13T01:37:00,axn,24.36
2023-02-13T01:38:00,axn,23.88
2023-02-13T01:39:00,axn,24.32
2023-02-13T01:40:00,axn,23.95
2023-02-13T01:41:00,axn,24.01
2023-02-13T01:42:00,axn,24.05
2023-02-13T01:43:00,axn,27.16
2023-02-13T01:44:00,axn,26.78
2023-02-13T01:45:00,axn,27.06
2023-02-13T01:46:00,axn,24.43
2023-02-13T01:47:00,axn,24.16
2023-02-13T01:48:00,axn,24.17
2023-02-13T01:49:00,axn,24.10
2023-02-13T01:50:00,axn,24.26
2023-02-13T01:51:00,axn,24.06
2023-02-13T01:52:00,axn,24.09
2023-02-13T01:53:00,axn,24.21
2023-02-13T01:54:00,axn,24.12
2023-02-13T01:55:00,axn,24.08
2023-02-13T01:56:00,axn,23.97
2023-02-13T01:57:00,axn,23.81
2023-02-13T01:58:00,axn,24.11
2023-02-13T01:59:00,axn,24.20
2023-02-13T02:00:00,axn,24.12
2023-02-13T02:01:00,axn,24.29
2023-02-13T02:02:00,axn,24.28
2023-02-13T02:03:00,axn,24.52
2023-02-13T02:04:00,axn,24.56
2023-02-13T02:05:00,axn,24.38
2023-02-13T02:06:00,axn,24.53
2023-02-13T02:07:00,axn,24.44
2023-02-13T02:08:00,axn,24.19
2023-02-13T02:09:00,axn,24.19
2023-02-13T02:10:00,axn,28.85
2023-02-13T02:11:00,axn,28.50
2023-02-13T02:12:00,axn,28.70
2023-02-13T02:13:00,axn,39.32
2023-02-13T02:14:00,axn,39.18
2023-02-13T02:15:00,axn,38.71
2023-02-13T02:16:00,axn,38.64
2023-02-13T02:17:00,axn,38.64
2023-02-13T02:18:00,axn,38.38
2023-02-13T02:19:00,axn,38.29
2023-02-13T02:20:00,axn,24.23
2023-02-13T02:21:00,axn,24.15
2023-02-13T02:22:00,axn,24.41
2023-02-13T02:23:00,axn,24.32
2023-02-13T02:24:00,axn,24.51
2023-02-13T02:25:00,axn,24.47
2023-02-13T02:26:00,axn,24.20
2023-02-13T02:27:00,axn,24.30
2023-02-13T02:28:00,axn,24.23
2023-02-13T02:29:00,axn,24.19
2023-02-13T02:30:00,axn,25.01
2023-02-13T02:31:00,axn,24.50
2023-02-13T02:32:00,axn,24.68
2023-02-13T02:33:00,axn,24.46
2023-02-13T02:34:00,axn,24.37
2023-02-13T02:35:00,axn,24.33
2023-02-13T02:36:00,axn,24.19
2023-02-13T02:37:00,axn,24.20
2023-02-13T02:38:00,axn,24.28
2023-02-13T02:39:00,axn,24.12
2023-02-13T02:40:00,axn,24.09
2023-02-13T02:41:00,axn,24.10
2023-02-13T02:42:00,axn,23.79
2023-02-13T02:43:00,axn,24.02
2023-02-13T02:44:00,axn,24.60
2023-02-13T02:45:00,axn,24.26
2023-02-13T02:46:00,axn,24.38
2023-02-13T02:47:00,axn,24.28
2023-02-13T02:48:00,axn,23.86
2023-02-13T02:49:00,axn,23.82
2023-02-13T02:50:00,axn,23.70
2023-02-13T02:51:00,axn,23.93
2023-02-13T02:52:00,axn,23.78
2023-02-13T02:53:00,axn,23.98
2023-02-13T02:54:00,axn,24.41
2023-02-13T02:55:00,axn,24.03
2023-02-13T02:56:00,axn,23.82
2023-02-13T02:57:00,axn,24.02
2023-02-13T02:58:00,axn,24.14
2023-02-13T02:59:00,axn,24.69
2023-02-13T03:00:00,axn,24.28
2023-02-13T03:01:00,axn,24.12
2023-02-13T03:02:00,axn,24.17
2023-02-13T03:03:00,axn,24.57
2023-02-13T03:04:00,axn,24.31
2023-02-13T03:05:00,axn,24.08
2023-02-13T03:06:00,axn,24.09
2023-02-13T03:07:00,axn,23.95
2023-02-13T03:08:00,axn,24.10
2023-02-13T03:09:00,axn,24.05
2023-02-13T03:10:00,axn,24.08
2023-02-13T03:11:00,axn,24.29
2023-02-13T03:12:00,axn,24.05
2023-02-13T03:13:00,axn,24.37
2023-02-13T03:14:00,axn,24.15
2023-02-13T03:15:00,axn,24.21
2023-02-13T03:16:00,axn,24.33
2023-02-13T03:17:00,axn,24.05
2023-02-13T03:18:00,axn,24.15
2023-02-13T03:19:00,axn,24.24
2023-02-13T03:20:00,axn,24.14
2023-02-13T03:21:00,axn,24.03
2023-02-13T03:22:00,axn,23.97
2023-02-13T03:23:00,axn,24.11
2023-02-13T03:24:00,axn,24.10
2023-02-13T03:25:00,axn,24.20
2023-02-13T03:26:00,axn,23.85
2023-02-13T03:27:00,axn,24.27
2023-02-13T03:28:00,axn,23.99
2023-02-13T03:29:00,axn,24.17
2023-02-13T03:30:00,axn,24.19
2023-02-13T03:31:00,axn,24.10
2023-02-13T03:32:00,axn,24.21
2023-02-13T03:33:00,axn,24.10
2023-02-13T03:34:00,axn,24.33
2023-02-13T03:35:00,axn,24.26
2023-02-13T03:36:00,axn,24.26
2023-02-13T03:37:00,axn,24.15
2023-02-13T03:38:00,axn,24.16
2023-02-13T03:39:00,axn,24.04
2023-02-13T03:40:00,axn,23.94
2023-02-13T03:41:00,axn,24.02
2023-02-13T03:42:00,axn,24.54
2023-02-13T03:43:00,axn,24.32
2023-02-13T03:44:00,axn,24.07
2023-02-13T03:45:00,axn,23.90
2023-02-13T03:46:00,axn,24.49
2023-02-13T03:47:00,axn,24.22
2023-02-13T03:48:00,axn,24.16
2023-02-13T03:49:00,axn,24.06
2023-02-13T03:50:00,axn,23.93
2023-02-13T03:51:00,axn,26.87
2023-02-13T03:52:00,axn,24.21
2023-02-13T03:53:00,axn,24.11
2023-02-13T03:54:00,axn,24.25
2023-02-13T03:55:00,axn,24.16
2023-02-13T03:56:00,axn,24.17
2023-02-13T03:57:00,axn,23.89
2023-02-13T03:58:00,axn,23.92
2023-02-13T03:59:00,axn,24.00
2023-02-13T04:00:00,axn,23.87
2023-02-13T04:01:00,axn,24.13
2023-02-13T04:02:00,axn,24.21
2023-02-13T04:03:00,axn,24.15
2023-02-13T04:04:00,axn,24.06
2023-02-13T04:05:00,axn,24.07
2023-02-13T04:06:00,axn,23.99
2023-02-13T04:07:00,axn,23.90
2023-02-13T04:08:00,axn,24.08
2023-02-13T04:09:00,axn,23.70
2023-02-13T04:10:00,axn,23.62
2023-02-13T04:11:00,axn,23.85
2023-02-13T04:12:00,axn,24.03
2023-02-13T04:13:00,axn,24.72
2023-02-13T04:14:00,axn,24.68
2023-02-13T04:15:00,axn,24.81
2023-02-13T04:16:00,axn,25.12
2023-02-13T04:17:00,axn,24.85
2023-02-13T04:18:00,axn,24.67
2023-02-13T04:19:00,axn,24.94
2023-02-13T04:20:00,axn,30.74
2023-02-13T04:21:00,axn,30.70
2023-02-13T04:22:00,axn,30.67
2023-02-13T04:23:00,axn,30.87
2023-02-13T04:24:00,axn,25.08
2023-02-13T04:25:00,axn,25.15
2023-02-13T04:26:00,axn,25.05
2023-02-13T04:27:00,axn,24.96
2023-02-13T04:28:00,axn,25.01
2023-02-13T04:29:00,axn,24.98
2023-02-13T04:30:00,axn,25.06
2023-02-13T04:31:00,axn,25.36
2023-02-13T04:32:00,axn,25.15
2023-02-13T04:33:00,axn,25.23
2023-02-13T04:34:00,axn,25.55
2023-02-13T04:35:00,axn,25.35
2023-02-13T04:36:00,axn,25.18
2023-02-13T04:37:00,axn,25.50
2023-02-13T04:38:00,axn,26.83
2023-02-13T04:39:00,axn,26.84
2023-02-13T04:40:00,axn,27.07
2023-02-13T04:41:00,axn,26.88
2023-02-13T04:42:00,axn,44.21
2023-02-13T04:43:00,axn,26.90
2023-02-13T04:44:00,axn,29.82
2023-02-13T04:45:00,axn,29.74
2023-02-13T04:46:00,axn,29.50
2023-02-13T04:47:00,axn,27.10
2023-02-13T04:48:00,axn,26.91
2023-02-13T04:49:00,axn,26.68
2023-02-13T04:50:00,axn,26.88
2023-02-13T04:51:00,axn,26.59
2023-02-13T04:52:00,axn,26.75
2023-02-13T04:53:00,axn,27.19
2023-02-13T04:54:00,axn,26.79
2023-02-13T04:55:00,axn,26.61
2023-02-13T04:56:00,axn,26.13
2023-02-13T04:57:00,axn,26.17
2023-02-13T04:58:00,axn,26.14
2023-02-13T04:59:00,axn,25.98
2023-02-13T05:00:00,axn,26.37
2023-02-13T05:01:00,axn,27.16
2023-02-13T05:02:00,axn,28.70
2023-02-13T05:03:00,axn,28.46
2023-02-13T05:04:00,axn,28.92
2023-02-13T05:05:00,axn,30.64
2023-02-13T05:06:00,axn,28.54
2023-02-13T05:07:00,axn,28.63
2023-02-13T05:08:00,axn,28.81
2023-02-13T05:09:00,axn,28.08
2023-02-13T05:10:00,axn,28.53
2023-02-13T05:11:00,axn,28.30
2023-02-13T05:12:00,axn,28.12
2023-02-13T05:13:00,axn,27.84
2023-02-13T05:14:00,axn,27.99
2023-02-13T05:15:00,axn,28.05
2023-02-13T05:16:00,axn,28.35
2023-02-13T05:17:00,axn,28.01
2023-02-13T05:18:00,axn,27.97
2023-02-13T05:19:00,axn,27.95
2023-02-13T05:20:00,axn,27.95
2023-02-13T05:21:00,axn,27.82
2023-02-13T05:22:00,axn,28.27
2023-02-13T05:23:00,axn,27.98
2023-02-13T05:24:00,axn,27.85
2023-02-13T05:25:00,axn,27.89
2023-02-13T05:26:00,axn,28.47
2023-02-13T05:27:00,axn,28.31
2023-02-13T05:28:00,axn,28.77
2023-02-13T05:29:00,axn,28.10
2023-02-13T05:30:00,axn,27.95
2023-02-13T05:31:00,axn,28.11
2023-02-13T05:32:00,axn,27.97
2023-02-13T05:33:00,axn,28.34
2023-02-13T05:34:00,axn,28.23
2023-02-13T05:35:00,axn,29.25
2023-02-13T05:36:00,axn,28.65
2023-02-13T05:37:00,axn,28.67
2023-02-13T05:38:00,axn,28.46
2023-02-13T05:39:00,axn,28.59
2023-02-13T05:40:00,axn,28.04
2023-02-13T05:41:00,axn,28.19
2023-02-13T05:42:00,axn,28.24
2023-02-13T05:43:00,axn,28.22
2023-02-13T05:44:00,axn,28.23
2023-02-13T05:45:00,axn,28.17
2023-02-13T05:46:00,axn,28.29
2023-02-13T05:47:00,axn,28.07
2023-02-13T05:48:00,axn,27.82
2023-02-13T05:49:00,axn,27.67
2023-02-13T05:50:00,axn,27.81
2023-02-13T05:51:00,axn,27.68
2023-02-13T05:52:00,axn,27.59
2023-02-13T05:53:00,axn,27.89
2023-02-13T05:54:00,axn,27.78
2023-02-13T05:55:00,axn,28.47
2023-02-13T05:56:00,axn,27.78
2023-02-13T05:57:00,axn,27.41
2023-02-13T05:58:00,axn,27.37
2023-02-13T05:59:00,axn,27.89
2023-02-13T06:00:00,axn,27.59
2023-02-13T06:01:00,axn,28.41
2023-02-13T06:02:00,axn,27.97
2023-02-13T06:03:00,axn,27.72
2023-02-13T06:04:00,axn,27.64
2023-02-13T06:05:00,axn,27.69
2023-02-13T06:06:00,axn,27.53
2023-02-13T06:07:00,axn,27.75
2023-02-13T06:08:00,axn,27.59
2023-02-13T06:09:00,axn,27.28
2023-02-13T06:10:00,axn,27.63
2023-02-13T06:11:00,axn,27.24
2023-02-13T06:12:00,axn,27.37
2023-02-13T06:13:00,axn,27.27
2023-02-13T06:14:00,axn,27.66
2023-02-13T06:15:00,axn,42.26
2023-02-13T06:16:00,axn,41.45
2023-02-13T06:17:00,axn,41.17
2023-02-13T06:18:00,axn,40.67
2023-02-13T06:19:00,axn,40.81
2023-02-13T06:20:00,axn,26.83
2023-02-13T06:21:00,axn,27.03
2023-02-13T06:22:00,axn,26.83
2023-02-13T06:23:00,axn,27.11
2023-02-13T06:24:00,axn,26.89
2023-02-13T06:25:00,axn,26.88
2023-02-13T06:26:00,axn,27.02
2023-02-13T06:27:00,axn,27.04
2023-02-13T06:28:00,axn,26.95
2023-02-13T06:29:00,axn,26.86
2023-02-13T06:30:00,axn,26.78
2023-02-13T06:31:00,axn,26.73
2023-02-13T06:32:00,axn,26.76
2023-02-13T06:33:00,axn,26.87
2023-02-13T06:34:00,axn,26.84
2023-02-13T06:35:00,axn,26.75
2023-02-13T06:36:00,axn,26.63
2023-02-13T06:37:00,axn,26.62
2023-02-13T06:38:00,axn,26.81
2023-02-13T06:39:00,axn,27.24
2023-02-13T06:40:00,axn,27.25
2023-02-13T06:41:00,axn,27.20
2023-02-13T06:42:00,axn,27.09
2023-02-13T06:43:00,axn,27.24
2023-02-13T06:44:00,axn,27.47
2023-02-13T06:45:00,axn,27.54
2023-02-13T06:46:00,axn,27.40
2023-02-13T06:47:00,axn,27.44
2023-02-13T06:48:00,axn,27.86
2023-02-13T06:49:00,axn,27.25
2023-02-13T06:50:00,axn,27.22
2023-02-13T06:51:00,axn,27.14
2023-02-13T06:52:00,axn,27.15
2023-02-13T06:53:00,axn,27.43
2023-02-13T06:54:00,axn,27.76
2023-02-13T06:55:00,axn,27.42
2023-02-13T06:56:00,axn,40.40
2023-02-13T06:57:00,axn,37.34
2023-02-13T06:58:00,axn,37.15
2023-02-13T06:59:00,axn,37.01
2023-02-13T07:00:00,axn,27.20
2023-02-13T07:01:00,axn,30.89
2023-02-13T07:02:00,axn,31.88
2023-02-13T07:03:00,axn,31.37
2023-02-13T07:04:00,axn,31.48
2023-02-13T07:05:00,axn,32.10
2023-02-13T07:06:00,axn,31.54
2023-02-13T07:07:00,axn,32.05
2023-02-13T07:08:00,axn,32.37
2023-02-13T07:09:00,axn,31.98
2023-02-13T07:10:00,axn,31.88
2023-02-13T07:11:00,axn,31.80
2023-02-13T07:12:00,axn,31.73
2023-02-13T07:13:00,axn,32.57
2023-02-13T07:14:00,axn,31.98
2023-02-13T07:15:00,axn,32.30
2023-02-13T07:16:00,axn,32.45
2023-02-13T07:17:00,axn,32.14
2023-02-13T07:18:00,axn,32.32
2023-02-13T07:19:00,axn,32.26
2023-02-13T07:20:00,axn,32.24
2023-02-13T07:21:00,axn,32.12
2023-02-13T07:22:00,axn,32.46
2023-02-13T07:23:00,axn,32.93
2023-02-13T07:24:00,axn,32.71
2023-02-13T07:25:00,axn,32.81
2023-02-13T07:26:00,axn,32.66
2023-02-13T07:27:00,axn,32.48
2023-02-13T07:28:00,axn,32.71
2023-02-13T07:29:00,axn,32.37
2023-02-13T07:30:00,axn,32.60
2023-02-13T07:31:00,axn,32.58
2023-02-13T07:32:00,axn,32.59
2023-02-13T07:33:00,axn,33.48
2023-02-13T07:34:00,axn,33.09
2023-02-13T07:35:00,axn,37.05
2023-02-13T07:36:00,axn,37.42
2023-02-13T07:37:00,axn,37.03
2023-02-13T07:38:00,axn,36.93
2023-02-13T07:39:00,axn,36.88
2023-02-13T07:40:00,axn,49.28
2023-02-13T07:41:00,axn,37.07
2023-02-13T07:42:00,axn,37.04
2023-02-13T07:43:00,axn,37.01
2023-02-13T07:44:00,axn,37.42
2023-02-13T07:45:00,axn,37.25
2023-02-13T07:46:00,axn,37.18
2023-02-13T07:47:00,axn,37.41
2023-02-13T07:48:00,axn,37.67
2023-02-13T07:49:00,axn,37.26
2023-02-13T07:50:00,axn,37.77
2023-02-13T07:51:00,axn,40.18
2023-02-13T07:52:00,axn,40.90
2023-02-13T07:53:00,axn,40.72
2023-02-13T07:54:00,axn,38.52
2023-02-13T07:55:00,axn,38.00
2023-02-13T07:56:00,axn,38.00
2023-02-13T07:57:00,axn,37.82
2023-02-13T07:58:00,axn,38.50
2023-02-13T07:59:00,axn,38.44
2023-02-13T08:00:00,axn,38.41
2023-02-13T08:01:00,axn,41.13
2023-02-13T08:02:00,axn,41.35
2023-02-13T08:03:00,axn,41.32
2023-02-13T08:04:00,axn,40.93
2023-02-13T08:05:00,axn,40.95
2023-02-13T08:06:00,axn,40.88
2023-02-13T08:07:00,axn,41.01
2023-02-13T08:08:00,axn,40.97
2023-02-13T08:09:00,axn,40.97
2023-02-13T08:10:00,axn,41.52
2023-02-13T08:11:00,axn,41.23
2023-02-13T08:12:00,axn,41.04
2023-02-13T08:13:00,axn,41.14
2023-02-13T08:14:00,axn,41.81
2023-02-13T08:15:00,axn,41.58
2023-02-13T08:16:00,axn,42.00
2023-02-13T08:17:00,axn,41.32
2023-02-13T08:18:00,axn,41.27
2023-02-13T08:19:00,axn,41.07
2023-02-13T08:20:00,axn,40.80
2023-02-13T08:21:00,axn,41.37
2023-02-13T08:22:00,axn,41.14
2023-02-13T08:23:00,axn,41.22
2023-02-13T08:24:00,axn,41.25
2023-02-13T08:25:00,axn,41.22
2023-02-13T08:26:00,axn,41.29
2023-02-13T08:27:00,axn,41.29
2023-02-13T08:28:00,axn,41.51
2023-02-13T08:29:00,axn,41.69
2023-02-13T08:30:00,axn,41.41
2023-02-13T08:31:00,axn,41.59
2023-02-13T08:32:00,axn,41.34
2023-02-13T08:33:00,axn,41.75
2023-02-13T08:34:00,axn,41.63
2023-02-13T08:35:00,axn,42.14
2023-02-13T08:36:00,axn,42.50
2023-02-13T08:37:00,axn,42.41
2023-02-13T08:38:00,axn,42.70
2023-02-13T08:39:00,axn,42.67
2023-02-13T08:40:00,axn,43.34
2023-02-13T08:41:00,axn,43.62
2023-02-13T08:42:00,axn,43.50
2023-02-13T08:43:00,axn,43.89
2023-02-13T08:44:00,axn,43.45
2023-02-13T08:45:00,axn,44.07
2023-02-13T08:46:00,axn,42.83
2023-02-13T08:47:00,axn,43.16
2023-02-13T08:48:00,axn,43.26
2023-02-13T08:49:00,axn,42.37
2023-02-13T08:50:00,axn,42.89
2023-02-13T08:51:00,axn,43.67
2023-02-13T08:52:00,axn,44.32
2023-02-13T08:53:00,axn,43.04
2023-02-13T08:54:00,axn,43.39
2023-02-13T08:55:00,axn,44.05
2023-02-13T08:56:00,axn,43.69
2023-02-13T08:57:00,axn,43.14
2023-02-13T08:58:00,axn,44.02
2023-02-13T08:59:00,axn,44.26
2023-02-13T09:00:00,axn,44.92
2023-02-13T09:01:00,axn,45.86
2023-02-13T09:02:00,axn,45.16
2023-02-13T09:03:00,axn,44.48
2023-02-13T09:04:00,axn,45.13
2023-02-13T09:05:00,axn,45.06
2023-02-13T09:06:00,axn,44.71
2023-02-13T09:07:00,axn,44.72
2023-02-13T09:08:00,axn,44.55
2023-02-13T09:09:00,axn,44.71
2023-02-13T09:10:00,axn,44.26
2023-02-13T09:11:00,axn,44.34
2023-02-13T09:12:00,axn,44.75
2023-02-13T09:13:00,axn,45.08
2023-02-13T09:14:00,axn,44.62
2023-02-13T09:15:00,axn,44.85
2023-02-13T09:16:00,axn,44.28
2023-02-13T09:17:00,axn,44.11
2023-02-13T09:18:00,axn,44.72
2023-02-13T09:19:00,axn,44.38
2023-02-13T09:20:00,axn,45.21
2023-02-13T09:21:00,axn,44.61
2023-02-13T09:22:00,axn,45.18
2023-02-13T09:23:00,axn,45.57
2023-02-13T09:24:00,axn,45.64
2023-02-13T09:25:00,axn,45.15
2023-02-13T09:26:00,axn,45.45
2023-02-13T09:27:00,axn,45.37
2023-02-13T09:28:00,axn,45.50
2023-02-13T09:29:00,axn,45.02
2023-02-13T09:30:00,axn,45.27
2023-02-13T09:31:00,axn,48.15
2023-02-13T09:32:00,axn,45.25
2023-02-13T09:33:00,axn,44.70
2023-02-13T09:34:00,axn,45.05
2023-02-13T09:35:00,axn,44.73
2023-02-13T09:36:00,axn,46.07
2023-02-13T09:37:00,axn,44.69
2023-02-13T09:38:00,axn,45.46
2023-02-13T09:39:00,axn,44.99
2023-02-13T09:40:00,axn,44.97
2023-02-13T09:41:00,axn,61.24
2023-02-13T09:42:00,axn,60.13
2023-02-13T09:43:00,axn,59.08
2023-02-13T09:44:00,axn,59.44
2023-02-13T09:45:00,axn,60.03
2023-02-13T09:46:00,axn,45.38
2023-02-13T09:47:00,axn,45.57
2023-02-13T09:48:00,axn,45.18
2023-02-13T09:49:00,axn,45.83
2023-02-13T09:50:00,axn,45.72
2023-02-13T09:51:00,axn,44.72
2023-02-13T09:52:00,axn,44.98
2023-02-13T09:53:00,axn,44.69
2023-02-13T09:54:00,axn,44.50
2023-02-13T09:55:00,axn,45.39
2023-02-13T09:56:00,axn,44.63
2023-02-13T09:57:00,axn,45.27
2023-02-13T09:58:00,axn,45.04
2023-02-13T09:59:00,axn,44.61
2023-02-13T10:00:00,axn,45.46
2023-02-13T10:01:00,axn,45.48
2023-02-13T10:02:00,axn,44.92
2023-02-13T10:03:00,axn,48.90
2023-02-13T10:04:00,axn,49.10
2023-02-13T10:05:00,axn,48.93
2023-02-13T10:06:00,axn,49.04
2023-02-13T10:07:00,axn,44.71
2023-02-13T10:08:00,axn,44.72
2023-02-13T10:09:00,axn,44.85
2023-02-13T10:10:00,axn,44.82
2023-02-13T10:11:00,axn,45.35
2023-02-13T10:12:00,axn,44.65
2023-02-13T10:13:00,axn,44.53
2023-02-13T10:14:00,axn,44.27
2023-02-13T10:15:00,axn,44.08
2023-02-13T10:16:00,axn,44.39
2023-02-13T10:17:00,axn,44.01
2023-02-13T10:18:00,axn,43.63
2023-02-13T10:19:00,axn,43.48
2023-02-13T10:20:00,axn,43.54
2023-02-13T10:21:00,axn,43.64
2023-02-13T10:22:00,axn,44.18
2023-02-13T10:23:00,axn,46.02
2023-02-13T10:24:00,axn,45.92
2023-02-13T10:25:00,axn,45.98
2023-02-13T10:26:00,axn,45.68
2023-02-13T10:27:00,axn,45.87
2023-02-13T10:28:00,axn,46.40
2023-02-13T10:29:00,axn,45.96
2023-02-13T10:30:00,axn,45.85
2023-02-13T10:31:00,axn,46.10
2023-02-13T10:32:00,axn,46.48
2023-02-13T10:33:00,axn,46.50
2023-02-13T10:34:00,axn,46.46
2023-02-13T10:35:00,axn,46.48
2023-02-13T10:36:00,axn,46.14
2023-02-13T10:37:00,axn,51.68
2023-02-13T10:38:00,axn,51.23
2023-02-13T10:39:00,axn,52.26
2023-02-13T10:40:00,axn,45.62
2023-02-13T10:41:00,axn,46.00
2023-02-13T10:42:00,axn,45.51
2023-02-13T10:43:00,axn,45.59
2023-02-13T10:44:00,axn,45.44
2023-02-13T10:45:00,axn,45.43
2023-02-13T10:46:00,axn,45.41
2023-02-13T10:47:00,axn,48.75
2023-02-13T10:48:00,axn,48.90
2023-02-13T10:49:00,axn,51.76
2023-02-13T10:50:00,axn,45.54
2023-02-13T10:51:00,axn,45.75
2023-02-13T10:52:00,axn,45.65
2023-02-13T10:53:00,axn,46.13
2023-02-13T10:54:00,axn,44.53
2023-02-13T10:55:00,axn,43.67
2023-02-13T10:56:00,axn,44.68
2023-02-13T10:57:00,axn,44.05
2023-02-13T10:58:00,axn,44.10
2023-02-13T10:59:00,axn,43.39
2023-02-13T11:00:00,axn,43.79
2023-02-13T11:01:00,axn,43.81
2023-02-13T11:02:00,axn,43.37
2023-02-13T11:03:00,axn,43.16
2023-02-13T11:04:00,axn,43.99
2023-02-13T11:05:00,axn,43.55
2023-02-13T11:06:00,axn,53.83
2023-02-13T11:07:00,axn,75.31
2023-02-13T11:08:00,axn,53.50
2023-02-13T11:09:00,axn,53.47
2023-02-13T11:10:00,axn,45.12
2023-02-13T11:11:00,axn,44.88
2023-02-13T11:12:00,axn,44.45
2023-02-13T11:13:00,axn,44.39
2023-02-13T11:14:00,axn,43.85
2023-02-13T11:15:00,axn,44.06
2023-02-13T11:16:00,axn,43.89
2023-02-13T11:17:00,axn,44.64
2023-02-13T11:18:00,axn,45.21
2023-02-13T11:19:00,axn,44.07
2023-02-13T11:20:00,axn,44.51
2023-02-13T11:21:00,axn,44.14
2023-02-13T11:22:00,axn,43.90
2023-02-13T11:23:00,axn,43.47
2023-02-13T11:24:00,axn,43.57
2023-02-13T11:25:00,axn,43.51
2023-02-13T11:26:00,axn,43.65
2023-02-13T11:27:00,axn,44.30
2023-02-13T11:28:00,axn,43.05
2023-02-13T11:29:00,axn,43.59
2023-02-13T11:30:00,axn,43.09
2023-02-13T11:31:00,axn,43.00
2023-02-13T11:32:00,axn,42.78
2023-02-13T11:33:00,axn,43.40
2023-02-13T11:34:00,axn,43.44
2023-02-13T11:35:00,axn,43.17
2023-02-13T11:36:00,axn,46.12
2023-02-13T11:37:00,axn,47.34
2023-02-13T11:38:00,axn,46.26
2023-02-13T11:39:00,axn,43.73
2023-02-13T11:40:00,axn,43.65
2023-02-13T11:41:00,axn,44.44
2023-02-13T11:42:00,axn,43.60
2023-02-13T11:43:00,axn,44.08
2023-02-13T11:44:00,axn,43.45
2023-02-13T11:45:00,axn,43.48
2023-02-13T11:46:00,axn,43.69
2023-02-13T11:47:00,axn,43.27
2023-02-13T11:48:00,axn,43.43
2023-02-13T11:49:00,axn,59.80
2023-02-13T11:50:00,axn,43.70
2023-02-13T11:51:00,axn,43.52
2023-02-13T11:52:00,axn,43.69
2023-02-13T11:53:00,axn,43.85
2023-02-13T11:54:00,axn,43.87
2023-02-13T11:55:00,axn,46.71
2023-02-13T11:56:00,axn,49.56
2023-02-13T11:57:00,axn,43.76
2023-02-13T11:58:00,axn,43.88
2023-02-13T11:59:00,axn,44.80
2023-02-13T12:00:00,axn,44.75
2023-02-13T12:01:00,axn,44.61
2023-02-13T12:02:00,axn,47.65
2023-02-13T12:03:00,axn,45.72
2023-02-13T12:04:00,axn,44.80
2023-02-13T12:05:00,axn,44.69
2023-02-13T12:06:00,axn,44.47
2023-02-13T12:07:00,axn,43.18
2023-02-13T12:08:00,axn,43.11
2023-02-13T12:09:00,axn,43.43
2023-02-13T12:10:00,axn,57.48
2023-02-13T12:11:00,axn,57.09
2023-02-13T12:12:00,axn,57.09
2023-02-13T12:13:00,axn,56.80
2023-02-13T12:14:00,axn,57.33
2023-02-13T12:15:00,axn,43.11
2023-02-13T12:16:00,axn,44.84
2023-02-13T12:17:00,axn,43.85
2023-02-13T12:18:00,axn,44.22
2023-02-13T12:19:00,axn,44.02
2023-02-13T12:20:00,axn,44.02
2023-02-13T12:21:00,axn,43.84
2023-02-13T12:22:00,axn,44.51
2023-02-13T12:23:00,axn,44.19
2023-02-13T12:24:00,axn,44.11
2023-02-13T12:25:00,axn,44.32
2023-02-13T12:26:00,axn,43.70
2023-02-13T12:27:00,axn,43.84
2023-02-13T12:28:00,axn,43.88
2023-02-13T12:29:00,axn,44.37
2023-02-13T12:30:00,axn,43.73
2023-02-13T12:31:00,axn,45.05
2023-02-13T12:32:00,axn,44.57
2023-02-13T12:33:00,axn,44.33
2023-02-13T12:34:00,axn,44.20
2023-02-13T12:35:00,axn,46.56
2023-02-13T12:36:00,axn,44.17
2023-02-13T12:37:00,axn,44.42
2023-02-13T12:38:00,axn,44.87
2023-02-13T12:39:00,axn,44.62
2023-02-13T12:40:00,axn,60.02
2023-02-13T12:41:00,axn,44.87
2023-02-13T12:42:00,axn,44.61
2023-02-13T12:43:00,axn,44.71
2023-02-13T12:44:00,axn,45.01
2023-02-13T12:45:00,axn,45.63
2023-02-13T12:46:00,axn,45.60
2023-02-13T12:47:00,axn,44.42
2023-02-13T12:48:00,axn,44.34
2023-02-13T12:49:00,axn,43.98
2023-02-13T12:50:00,axn,43.97
2023-02-13T12:51:00,axn,68.26
2023-02-13T12:52:00,axn,44.81
2023-02-13T12:53:00,axn,47.12
2023-02-13T12:54:00,axn,44.20
2023-02-13T12:55:00,axn,43.84
2023-02-13T12:56:00,axn,44.02
2023-02-13T12:57:00,axn,44.08
2023-02-13T12:58:00,axn,44.39
2023-02-13T12:59:00,axn,44.05
2023-02-13T13:00:00,axn,44.05
2023-02-13T13:01:00,axn,44.50
2023-02-13T13:02:00,axn,44.76
2023-02-13T13:03:00,axn,45.11
2023-02-13T13:04:00,axn,45.07
2023-02-13T13:05:00,axn,44.78
2023-02-13T13:06:00,axn,44.07
2023-02-13T13:07:00,axn,44.91
2023-02-13T13:08:00,axn,44.89
2023-02-13T13:09:00,axn,44.76
2023-02-13T13:10:00,axn,45.27
2023-02-13T13:11:00,axn,43.97
2023-02-13T13:12:00,axn,43.76
2023-02-13T13:13:00,axn,43.96
2023-02-13T13:14:00,axn,43.97
2023-02-13T13:15:00,axn,44.14
2023-02-13T13:16:00,axn,43.97
2023-02-13T13:17:00,axn,44.39
2023-02-13T13:18:00,axn,52.26